Wind_Speed
10 5 4 6 5 5 6 7 8 5 5 5 4 4 3 1 4 5 3 4 9 6 5 9 9 9 7 6 10 17 19 17 17 19 23 26 28 30 27 25 28 32 34 34 35 36 35 33 30 28 26 24 23 23 25 26 26 26 25 25 25 25 25 25 27 27 24 24 23 22 20 20 18 16 14 12 10 9 7 8 9 8 7 7 8 8
8 6 5 5 6 6 5 6 6 4 3 3 3 2 1 3 4 6 4 4 7 6 5 7 7 8 7 6 10 16 15 15 19 21 23 27 28 30 30 26 27 29 30 31 34 36 36 35 33 31 29 27 25 25 26 27 27 26 26 26 26 26 27 27 27 27 25 24 24 22 20 19 19 16 14 12 10 9 8 8 9 8 7 8 8 8
5 5 4 5 6 5 3 4 5 3 3 2 2 2 1 3 4 5 4 2 5 5 3 4 6 8 8 7 10 15 16 19 25 25 24 27 27 29 32 29 27 27 28 31 34 36 37 37 36 34 32 29 27 26 26 28 27 27 27 27 27 27 28 28 27 28 26 24 23 22 19 18 18 16 13 11 9 9 9 9 10 9 8 8 8 8
4 4 5 6 6 5 2 3 4 1 1 3 3 3 2 3 1 2 4 3 4 5 1 3 4 5 5 5 7 16 22 21 24 25 23 26 28 30 34 31 28 29 31 31 33 36 38 39 38 37 35 32 30 29 28 28 29 29 29 29 28 29 29 28 28 27 26 25 23 22 20 18 17 15 13 12 11 10 10 10 10 10 8 8 8 8
5 4 5 6 6 5 3 1 4 1 2 2 4 4 3 3 4 5 3 4 1 2 1 3 1 4 4 6 5 11 17 16 18 22 21 25 28 28 30 30 29 30 33 33 33 36 38 39 40 40 38 34 33 33 30 29 30 29 30 30 29 29 30 29 28 27 26 26 25 23 21 20 19 17 16 15 14 13 13 12 11 10 8 8 8 8
5 5 5 6 4 5 4 3 3 5 2 3 3 7 7 5 6 5 3 5 4 3 3 2 2 5 3 6 5 5 9 11 15 19 20 24 26 26 28 30 31 31 33 34 35 36 38 39 41 41 40 38 36 35 33 31 29 29 29 30 30 30 31 30 28 27 27 27 26 25 23 23 22 21 20 19 17 15 14 12 10 9 8 8 8 8
2 3 6 6 4 5 4 5 4 6 4 3 4 8 9 7 6 5 0 2 0 2 4 0 3 3 4 3 5 6 8 10 12 15 18 23 25 27 30 31 33 33 34 35 35 35 37 39 41 42 42 41 39 36 34 33 31 29 29 30 31 31 31 31 30 28 28 28 28 27 25 24 23 22 21 19 18 16 14 12 10 9 9 8 8 8
2 3 3 4 4 5 4 4 5 7 6 3 5 6 8 8 7 6 4 3 3 2 4 3 3 1 4 4 5 7 9 9 10 12 16 21 25 28 31 32 34 35 36 37 37 36 38 40 41 42 43 42 40 37 36 35 34 31 30 30 31 31 31 31 31 30 29 28 28 27 26 25 24 22 20 18 18 17 15 13 11 10 9 8 8 9
2 4 4 4 3 3 5 5 6 8 5 5 6 6 7 7 6 5 5 5 2 2 4 4 2 1 4 5 2 6 8 9 13 14 14 19 25 29 32 34 35 36 38 39 40 39 39 40 42 42 42 41 40 39 38 37 36 34 31 30 31 32 32 32 32 31 30 29 28 27 27 26 25 23 21 19 18 17 16 15 13 12 10 10 10 10
1 4 6 6 4 5 6 6 8 9 5 5 6 6 4 3 3 3 4 3 1 2 3 5 3 2 4 4 1 4 5 9 13 12 13 20 27 31 33 36 37 37 38 40 41 42 41 41 42 42 42 41 40 40 39 38 37 36 34 32 31 32 33 33 33 32 31 30 29 28 28 28 27 25 23 21 19 19 18 17 15 14 12 11 11 11
4 2 3 5 3 5 6 5 9 12 8 5 4 3 3 2 3 3 2 2 3 1 6 7 6 4 2 4 3 5 5 8 10 9 12 19 26 31 34 36 38 38 39 40 41 42 43 42 41 41 42 42 41 40 40 40 39 39 37 35 33 31 32 34 34 33 32 31 30 29 28 29 28 27 26 24 22 21 20 19 18 16 14 13 13 13
6 3 1 1 2 3 0 1 3 6 6 4 3 4 3 1 3 3 4 2 2 4 6 4 5 5 1 4 4 5 7 5 5 8 12 17 25 32 35 37 39 40 40 41 42 42 42 42 40 41 42 42 42 41 41 42 41 41 40 37 35 33 32 33 34 34 33 32 31 30 29 29 29 29 28 26 24 22 21 20 19 17 16 15 14 15
3 1 3 3 5 10 5 1 3 3 4 5 4 5 4 1 1 1 1 1 4 5 4 2 5 4 3 5 3 5 9 10 8 8 10 15 24 32 35 38 39 40 41 41 42 43 43 43 43 42 43 43 43 44 43 43 43 43 42 40 38 35 33 32 33 34 33 32 32 31 30 30 29 29 29 27 26 24 22 20 20 19 18 17 17 17
1 1 7 5 5 10 6 2 1 2 3 4 5 5 5 2 2 3 2 0 2 4 3 1 2 2 3 3 3 6 7 9 12 14 12 12 21 29 33 37 39 39 41 42 42 44 44 44 45 45 44 44 45 45 45 45 44 44 44 42 41 38 34 33 33 33 33 32 32 32 32 30 30 29 29 28 27 26 24 22 21 20 20 19 19 18
3 1 5 5 3 8 6 2 1 3 2 2 4 5 5 5 4 3 3 3 3 3 2 3 2 3 3 3 1 5 6 10 17 21 20 14 11 25 30 31 34 37 39 42 43 44 45 45 45 45 45 46 46 46 46 46 46 46 45 44 43 40 37 35 34 33 33 32 31 32 32 32 31 30 29 28 27 27 26 24 21 20 20 20 19 18
3 2 5 5 4 4 5 4 2 3 3 2 2 5 3 4 4 2 3 5 4 3 0 1 3 3 4 3 5 10 10 13 21 24 25 24 16 14 27 28 31 36 38 41 43 44 45 46 45 46 46 46 47 47 47 47 47 47 46 45 44 42 39 36 35 33 33 32 31 31 32 33 32 31 30 29 28 28 27 25 23 21 20 20 19 18
2 1 6 7 5 5 6 5 2 5 2 2 3 3 3 3 5 4 1 1 3 5 3 2 2 4 2 1 9 15 14 15 20 23 22 24 24 9 20 30 33 36 38 41 43 45 46 46 46 47 46 47 47 47 48 48 48 47 46 46 45 43 41 38 36 34 33 32 32 31 32 32 33 32 31 30 29 28 27 26 25 23 21 21 20 19
2 1 5 6 4 9 12 5 1 6 5 2 2 2 3 2 4 3 2 2 4 4 2 2 2 4 4 1 9 17 17 17 17 18 19 22 25 19 10 21 32 36 37 40 41 42 44 45 47 47 47 48 48 48 49 49 48 47 46 46 45 44 43 40 38 36 34 33 33 32 32 32 33 33 32 30 29 29 28 27 26 25 24 22 22 21
2 1 4 3 2 9 13 6 1 9 11 4 2 1 1 3 1 1 2 2 2 3 1 3 2 3 4 4 10 14 16 17 16 15 15 18 21 22 20 15 24 34 35 38 40 41 43 45 46 48 48 48 48 48 49 48 48 47 47 46 45 44 43 40 38 37 36 35 33 32 32 32 33 33 32 32 30 30 29 28 27 26 26 24 23 22
1 3 2 6 5 5 7 7 2 7 9 5 4 4 3 2 2 1 2 3 2 3 3 1 3 3 3 5 8 10 12 14 15 14 12 16 21 22 24 22 18 30 36 38 40 42 44 45 46 47 47 47 47 47 48 48 48 48 47 47 46 45 44 42 40 38 37 36 35 34 33 32 32 32 32 32 32 32 31 29 27 27 26 25 24 23
1 3 1 6 8 4 3 4 3 3 5 5 6 6 5 3 1 2 2 2 3 3 3 3 3 2 3 4 5 8 10 11 12 13 11 16 23 24 28 27 15 27 36 38 41 42 43 44 45 45 45 46 46 46 46 47 48 49 48 48 47 46 45 44 43 41 39 37 36 35 34 33 32 32 32 32 33 33 33 31 29 27 26 26 26 24
2 2 2 2 5 4 2 2 2 5 6 5 5 4 3 3 2 3 2 2 2 3 2 4 4 0 3 4 5 7 9 11 13 14 13 19 25 28 33 33 16 16 31 35 36 37 38 40 41 42 42 43 44 44 45 47 47 48 49 48 48 47 47 46 44 43 41 39 38 36 35 34 33 32 32 32 33 34 34 33 32 29 28 27 27 25
1 2 3 2 2 0 2 2 3 5 7 7 6 4 2 2 3 3 2 1 3 3 1 2 4 2 1 4 6 8 10 13 17 18 17 21 27 31 36 37 28 9 12 24 28 28 30 33 35 36 38 40 42 43 44 46 47 48 49 48 48 48 47 46 45 43 42 40 39 37 35 34 33 33 33 33 33 35 36 35 34 32 30 29 28 27
2 3 3 2 3 4 4 3 4 4 4 5 5 5 3 3 2 1 3 2 2 3 2 2 4 3 2 5 8 11 14 15 18 20 19 22 28 34 37 37 36 28 13 4 14 20 23 27 30 32 35 37 39 41 43 44 46 47 48 48 48 48 47 46 45 44 43 42 40 38 37 36 35 34 34 34 34 34 36 36 36 35 33 31 30 29
2 1 3 3 3 4 5 4 4 4 4 3 3 4 5 5 5 2 1 2 2 1 1 3 4 3 3 5 10 13 15 15 19 21 20 20 25 31 35 37 38 36 29 19 9 10 15 20 26 29 33 35 36 38 39 41 43 44 46 47 47 48 47 46 46 45 44 43 42 40 39 38 37 36 35 34 34 34 35 36 37 37 35 34 33 31
2 1 3 4 3 1 1 1 2 3 3 2 2 5 6 7 7 3 2 4 2 0 0 3 2 3 4 6 10 12 12 13 18 22 21 21 23 27 32 36 39 40 36 30 22 13 9 14 19 24 29 33 35 36 36 38 40 41 43 44 45 46 46 46 45 45 45 44 43 42 41 40 39 38 36 35 34 34 34 35 37 37 37 36 35 33
3 3 3 5 5 4 5 4 3 2 3 2 3 6 6 6 5 3 3 2 1 1 2 2 2 3 7 9 10 11 10 10 14 19 21 21 23 27 31 34 37 41 40 35 31 23 16 10 11 16 22 27 32 34 36 37 39 39 41 42 44 44 45 45 45 45 45 44 44 43 42 41 40 39 37 35 34 33 33 34 36 37 38 38 37 36
4 4 4 5 4 2 4 2 4 3 1 3 4 5 5 6 5 4 2 3 3 3 3 5 1 3 6 9 9 8 8 8 11 16 19 19 19 22 30 36 39 41 40 38 36 31 26 19 11 9 13 19 24 29 32 34 37 38 40 42 43 43 44 44 44 44 44 44 44 44 43 42 41 39 37 36 34 33 33 33 34 36 38 39 39 39
4 2 2 3 3 2 1 3 4 2 1 2 3 4 4 5 4 1 3 5 5 4 4 6 1 3 5 7 7 7 8 8 9 14 16 17 19 22 30 37 39 40 39 38 36 34 32 27 20 12 8 10 16 21 25 28 31 34 37 40 41 42 43 43 43 44 44 44 44 44 43 41 41 40 38 37 36 35 33 33 33 34 36 38 39 40
3 1 2 3 2 3 4 3 3 3 3 3 4 5 5 5 5 5 5 5 5 6 7 7 4 2 3 5 5 6 8 9 11 16 20 21 22 24 28 32 34 36 36 36 35 34 33 31 26 19 12 7 8 13 18 21 25 29 34 37 39 40 42 42 43 43 43 44 44 43 42 42 41 40 40 39 38 37 35 34 33 33 34 36 38 39
3 1 2 3 3 3 4 4 3 3 2 3 5 6 6 5 5 4 4 3 3 5 5 5 4 1 2 6 6 6 8 10 14 20 23 23 23 23 25 29 32 32 31 33 33 32 32 32 29 24 17 11 7 5 9 15 21 25 29 33 37 40 40 41 42 43 43 44 43 42 42 42 41 41 41 40 39 38 37 36 35 34 33 34 35 36
3 2 2 4 4 3 2 3 5 4 2 3 5 6 5 3 2 3 3 2 1 2 2 1 2 2 3 7 6 6 9 12 14 16 20 23 24 23 22 25 30 30 28 28 30 30 30 31 30 28 23 17 11 6 2 8 15 21 26 29 33 37 39 41 42 42 43 43 42 42 42 41 41 41 41 40 40 39 38 37 36 36 35 34 33 33
2 3 1 3 2 3 3 3 4 3 4 2 2 2 3 3 3 4 2 3 3 1 2 2 2 2 3 5 5 5 8 10 12 14 17 22 25 23 21 23 27 29 26 25 26 27 27 28 29 29 27 22 16 12 7 0 7 15 23 28 31 34 37 40 41 42 42 42 41 41 41 41 41 42 42 41 40 39 39 39 38 37 36 35 34 34
2 4 2 2 2 3 6 5 3 3 2 3 3 2 3 4 4 2 1 3 4 2 3 3 0 1 3 3 4 6 5 5 9 14 17 20 23 24 24 25 27 28 27 25 24 24 24 24 25 26 27 25 21 17 12 6 2 9 17 24 29 33 36 39 41 42 42 41 42 42 41 39 37 37 39 41 41 41 40 39 38 37 36 35 35 35
3 4 2 2 2 2 3 4 4 2 4 5 5 4 3 2 1 2 4 3 5 4 3 2 2 2 4 5 6 9 9 2 5 15 21 21 21 23 25 26 27 27 27 27 26 25 24 23 23 23 24 25 23 22 17 10 5 4 10 17 22 27 33 36 38 41 42 41 41 42 42 41 36 31 31 33 38 41 41 39 38 37 36 36 36 35
4 3 2 2 2 0 2 2 1 3 6 5 5 5 3 4 4 3 3 2 4 4 3 3 4 5 7 8 9 15 13 6 5 9 20 21 20 22 23 25 26 25 25 26 27 27 26 24 23 23 23 22 21 22 22 16 10 7 7 8 12 18 26 33 34 36 39 42 42 42 42 42 39 35 32 31 33 38 39 39 37 36 35 35 35 35
5 4 2 1 1 2 1 1 2 3 6 5 3 2 2 2 1 1 1 0 3 5 5 4 4 8 11 11 14 17 11 3 6 7 17 21 21 21 21 22 23 23 23 23 25 26 25 24 23 22 22 22 19 18 21 20 14 11 12 9 5 11 19 28 31 31 33 37 42 43 42 40 40 40 38 36 35 35 36 37 36 35 34 35 35 34
4 2 3 3 1 2 3 1 2 2 3 4 3 3 2 2 3 1 0 1 2 6 9 6 4 9 12 13 17 16 8 3 2 8 18 22 20 20 21 21 22 22 22 22 24 26 25 23 22 22 22 22 20 16 18 21 17 14 15 12 2 10 15 19 23 26 27 29 34 39 41 40 39 39 39 40 39 37 35 35 35 35 34 35 35 34
5 2 3 4 1 2 3 1 1 2 4 4 5 5 5 5 3 1 1 1 1 7 10 8 7 10 12 14 17 14 7 2 0 9 19 22 20 20 21 21 21 21 21 21 23 25 25 23 21 20 20 20 20 19 19 19 18 16 16 14 5 6 11 12 14 19 21 20 21 28 35 38 39 39 38 39 39 38 36 35 35 35 35 36 36 35
5 4 3 3 2 3 3 2 2 3 4 4 5 5 6 3 2 2 1 2 2 7 10 9 9 11 13 15 15 10 4 2 5 12 18 18 17 18 19 21 22 22 22 21 22 23 24 22 21 19 19 18 19 20 22 21 18 17 16 14 9 5 7 9 10 12 13 13 14 19 26 31 34 36 36 35 36 36 36 35 35 36 37 38 37 37
3 2 1 2 2 4 4 3 2 3 3 4 3 4 5 2 2 2 2 2 3 7 8 8 9 10 12 15 13 8 8 10 13 17 17 15 16 17 17 20 22 22 22 22 21 22 23 22 21 20 19 17 17 19 21 22 20 17 16 15 12 9 6 8 11 11 11 13 14 16 18 23 28 30 31 31 31 33 35 36 37 38 38 39 39 39
1 1 1 2 2 2 2 2 3 4 4 5 2 1 1 2 2 3 2 4 4 4 5 8 9 10 13 15 15 15 18 19 18 19 18 16 16 17 17 19 21 22 21 21 21 22 24 24 22 20 19 17 17 18 19 21 21 19 18 17 16 12 9 7 8 10 11 14 15 13 12 14 20 25 26 27 26 28 30 32 35 38 39 39 40 40
3 2 1 2 3 2 1 2 3 4 4 6 3 2 4 4 2 3 4 4 2 4 7 9 10 12 14 17 19 21 23 24 23 22 22 21 20 19 18 18 20 21 22 23 23 23 24 25 24 22 20 18 18 19 20 19 20 20 21 20 18 15 12 9 7 7 10 15 17 16 14 12 12 15 19 21 23 25 26 27 29 33 37 40 41 42
3 3 2 2 3 3 3 4 4 3 7 9 5 2 4 6 8 8 7 4 4 7 10 12 14 15 16 19 22 24 26 28 28 26 26 26 25 24 22 20 19 21 22 23 25 24 25 26 26 24 22 19 18 19 20 20 19 18 21 23 21 17 14 12 9 6 8 12 15 15 17 18 16 14 13 15 18 22 25 26 26 28 34 39 42 43
5 5 4 3 3 3 4 6 4 4 8 10 9 9 11 11 11 10 9 9 8 10 12 14 17 18 18 19 21 23 25 28 30 30 29 29 29 28 27 25 23 22 23 24 25 25 25 26 27 26 24 21 18 17 18 19 20 18 19 22 22 20 17 14 12 10 8 10 13 14 15 17 18 18 16 14 15 17 20 22 24 26 31 37 42 44
5 5 5 2 2 3 7 10 10 9 14 17 18 18 15 11 10 10 11 11 10 11 12 13 15 17 17 18 19 21 23 25 29 32 32 30 31 31 30 29 27 25 25 25 25 25 25 25 26 27 25 22 20 18 16 16 19 19 19 19 20 21 19 16 14 13 11 11 13 15 17 16 15 15 16 16 17 19 19 20 21 24 28 34 41 45
4 7 5 2 1 1 4 7 9 11 16 17 15 14 14 12 12 12 11 10 11 11 10 11 12 14 16 17 18 21 23 22 25 31 33 31 31 31 32 32 31 29 27 26 25 25 25 25 26 27 26 24 21 20 18 16 16 19 21 20 20 20 20 18 16 15 14 14 14 16 18 18 17 15 15 15 16 19 22 23 25 27 27 33 42 45
3 8 6 2 3 4 4 8 10 11 14 15 15 17 19 18 17 13 11 11 12 11 10 11 12 13 16 18 19 22 24 24 24 28 32 33 31 30 31 33 33 31 29 27 26 25 24 25 25 26 27 26 22 21 21 18 16 18 21 21 21 21 21 20 18 17 16 15 15 17 17 17 16 15 15 14 15 18 22 24 26 28 29 33 40 41
7 7 5 3 3 3 7 12 14 12 14 17 19 18 18 17 15 13 11 12 12 11 11 12 13 15 17 19 21 22 24 25 25 26 30 33 33 32 31 32 33 33 32 29 27 26 25 25 25 26 28 27 23 21 22 21 18 18 19 21 22 22 22 21 20 19 18 17 16 17 18 17 15 14 14 15 16 19 22 24 24 26 28 31 34 35
8 4 3 3 1 3 6 11 10 5 7 12 12 10 10 10 12 13 14 13 12 12 13 14 16 18 19 21 23 24 25 26 25 26 29 32 34 34 32 31 32 33 33 31 30 29 28 27 25 25 27 27 25 22 22 22 21 19 19 19 21 21 22 22 21 21 20 19 18 18 18 17 16 16 15 15 16 19 22 24 24 25 27 29 30 32
13 10 8 7 5 8 13 17 13 9 10 11 9 8 8 9 12 15 15 13 13 13 14 15 18 21 23 24 25 25 27 28 27 27 29 32 33 33 32 32 32 33 33 32 31 31 30 29 26 25 26 27 26 24 23 22 21 20 20 19 19 20 20 21 21 21 20 20 19 18 18 18 17 17 17 16 17 18 21 23 24 25 26 28 28 28
Wind_Direction
171 164 198 196 178 172 187 188 195 199 154 137 125 119 144 181 281 257 258 232 181 178 230 212 221 240 219 189 190 190 191 191 188 189 193 195 196 199 201 201 200 201 203 203 202 205 209 212 213 212 209 210 212 211 210 208 208 208 205 203 200 196 196 194 189 189 191 189 187 188 189 186 182 181 181 180 179 177 177 187 193 195 197 202 203 201
169 194 209 172 160 171 186 190 193 194 163 149 142 132 168 196 255 255 246 239 179 179 245 220 226 247 224 199 191 187 190 197 195 193 195 197 198 200 203 204 204 203 203 202 203 205 208 211 212 213 211 211 213 211 210 211 210 209 208 207 204 199 198 198 194 194 196 194 193 194 195 191 187 185 184 182 181 181 183 192 197 197 200 205 206 204
183 217 191 160 168 161 138 158 169 183 173 162 140 130 232 237 271 282 289 300 168 184 262 205 211 243 227 198 190 188 193 202 202 199 198 197 197 201 204 205 204 201 201 202 204 205 206 209 211 213 212 212 215 213 211 212 211 211 210 209 207 203 200 200 199 199 201 199 198 199 199 195 192 190 187 183 183 187 190 195 198 198 199 203 206 205
195 235 197 171 152 143 166 151 133 98 220 165 140 137 227 251 293 282 310 355 153 183 235 171 207 254 228 201 200 197 198 203 204 204 204 202 202 204 205 206 204 201 200 201 203 205 206 208 209 211 213 214 215 216 214 212 212 212 212 211 209 206 204 202 201 203 204 203 202 201 199 198 198 196 192 188 189 191 191 195 198 197 196 198 204 208
217 243 185 157 143 154 200 184 129 147 284 231 174 168 202 219 211 227 288 3 88 224 185 106 4 302 213 197 213 200 199 203 201 201 206 209 209 208 206 208 207 205 203 201 202 205 206 207 209 211 214 215 216 217 216 213 212 212 212 212 212 210 208 205 203 204 205 205 204 202 199 200 203 201 199 196 193 191 188 190 196 196 196 198 202 209
247 243 146 129 149 158 177 233 182 170 237 295 214 192 191 196 219 243 331 23 20 315 265 112 45 304 260 209 215 185 190 198 195 197 204 208 209 208 206 208 209 209 208 205 204 206 206 207 209 211 214 215 217 219 218 215 213 213 213 213 213 213 211 209 206 205 206 206 206 205 202 201 203 203 202 200 195 191 186 187 193 195 197 200 203 211
246 210 146 137 165 159 172 233 208 162 164 285 245 199 187 186 217 246 22 67 12 275 279 159 155 268 308 253 217 178 188 198 193 199 205 205 206 206 206 208 208 209 209 209 207 207 207 208 209 210 212 215 217 220 220 218 215 214 214 214 214 215 215 213 210 207 208 208 208 209 208 206 205 206 205 202 197 193 189 188 194 199 199 202 206 211
176 129 125 133 157 168 186 231 209 162 146 242 242 181 172 188 213 227 180 180 225 254 318 343 137 228 306 270 220 172 182 202 202 206 205 204 206 206 208 208 207 208 209 209 208 208 209 209 210 212 213 216 219 221 222 220 217 215 215 216 215 216 217 216 213 211 210 211 210 210 212 212 211 211 209 206 201 197 195 194 199 204 206 207 210 212
191 153 179 169 161 190 209 220 190 161 163 235 220 161 162 186 192 191 180 207 239 54 316 303 126 167 279 282 236 161 178 207 212 210 205 204 206 207 209 209 209 209 209 210 209 209 210 211 212 214 216 218 220 222 223 223 220 217 216 217 216 217 218 218 216 214 213 214 213 212 214 216 216 214 213 211 207 204 203 203 204 208 210 212 214 215
250 187 185 154 157 208 221 218 176 162 192 214 181 155 142 150 144 132 167 192 69 78 254 251 174 160 275 286 143 154 200 220 215 212 206 205 206 207 209 209 209 209 209 211 211 211 212 213 214 215 217 220 221 222 224 225 223 219 217 217 217 218 219 219 219 217 215 216 216 215 215 218 218 218 215 213 212 212 210 209 208 209 211 214 216 216
298 259 167 129 156 223 224 219 189 185 193 165 132 117 91 60 62 71 92 101 72 283 252 230 188 142 305 279 197 178 219 218 207 208 207 208 208 208 209 209 209 209 209 210 212 213 213 214 214 214 216 219 220 221 223 224 223 220 219 218 218 218 219 220 220 219 218 217 217 217 216 219 220 220 219 216 215 215 214 213 211 210 213 217 219 218
332 21 158 169 44 20 6 253 225 199 180 140 105 97 110 347 27 44 3 56 133 256 268 227 162 121 165 260 247 261 285 281 226 213 207 205 206 207 207 209 209 208 209 210 211 212 213 213 213 213 214 217 218 219 221 222 223 221 220 219 218 218 219 220 221 221 221 220 219 219 218 220 221 222 223 221 219 218 216 215 214 213 215 219 219 218
322 10 323 297 25 28 36 338 344 22 97 128 129 108 128 283 20 138 285 159 193 250 269 190 129 120 228 246 286 315 316 316 301 275 252 222 210 207 206 207 208 208 208 209 210 211 212 212 212 213 214 214 216 218 220 221 222 222 221 220 220 218 218 219 220 221 222 222 221 220 220 220 221 223 225 225 225 223 220 218 218 217 217 218 218 218
272 294 351 353 355 7 33 100 4 20 73 133 154 135 149 161 118 192 231 98 220 249 281 271 167 195 270 269 339 347 329 330 343 338 316 265 225 214 211 208 207 207 207 208 209 210 211 211 212 214 214 214 215 218 219 220 222 222 222 221 221 220 219 218 220 221 221 223 223 221 221 222 222 223 226 227 227 227 226 223 222 222 221 219 219 219
132 186 354 11 333 349 22 64 208 179 136 174 181 143 150 166 151 188 208 161 183 226 310 326 201 191 203 184 86 359 336 359 11 5 360 345 264 223 215 212 208 207 208 208 209 210 211 212 212 213 214 214 216 217 218 219 221 222 222 222 222 221 220 219 220 221 221 222 223 223 222 223 224 225 227 228 228 229 230 228 225 225 225 224 222 222
116 192 308 313 291 345 8 319 310 133 164 217 153 118 135 175 157 139 182 174 161 143 107 277 213 210 203 196 9 3 354 9 13 6 5 4 342 237 210 209 209 209 209 208 209 210 211 211 211 212 213 214 215 215 216 218 219 221 222 223 223 223 222 222 222 223 223 223 223 224 223 222 224 226 228 229 229 229 230 231 229 226 227 228 226 226
77 277 315 330 318 344 352 305 357 72 162 203 95 140 193 162 127 111 158 209 84 123 176 261 279 319 318 268 350 355 356 4 9 4 357 356 355 319 212 206 208 210 210 210 210 210 211 211 211 212 213 214 213 214 215 217 219 221 223 223 223 223 223 224 224 225 225 223 223 225 225 224 224 226 227 228 229 230 230 231 231 230 230 230 230 230
99 230 315 358 329 318 338 330 153 34 30 120 112 247 240 116 105 111 126 15 46 135 213 5 61 2 5 317 341 354 356 355 358 358 349 349 357 351 280 222 211 210 211 212 212 212 212 211 210 211 212 214 214 214 215 217 219 221 224 225 224 224 224 225 226 227 227 226 224 225 227 226 225 225 226 227 228 230 231 232 232 232 232 231 231 232
64 67 292 332 277 299 340 18 89 353 11 72 134 279 77 114 144 61 125 141 103 149 198 8 41 35 23 330 340 355 354 349 347 348 349 349 350 346 330 285 229 214 212 211 212 212 212 212 211 211 212 213 215 215 216 217 218 220 223 225 226 227 227 227 228 229 229 228 227 227 228 229 228 227 226 227 228 230 232 233 234 234 235 234 233 233
23 78 289 302 313 311 352 35 32 329 350 31 39 12 30 110 160 122 123 152 142 157 167 46 14 17 358 328 347 359 351 348 348 346 348 349 346 341 335 321 260 222 213 212 212 212 212 213 212 212 211 213 214 215 215 215 216 219 221 224 225 226 227 228 229 230 230 230 230 230 230 231 231 230 229 228 228 229 232 234 235 236 237 237 237 236
18 68 32 305 328 9 29 9 9 344 354 19 35 25 1 349 10 63 57 71 105 139 163 118 74 356 324 332 356 5 355 353 353 350 347 349 351 350 348 344 297 231 218 214 214 214 213 213 213 212 211 213 214 214 214 214 216 218 220 222 224 225 226 227 228 229 231 232 232 232 232 233 233 233 232 231 230 230 232 235 236 237 238 239 240 240
36 75 82 334 351 46 78 314 19 69 61 60 62 34 353 350 37 88 71 355 44 96 134 130 121 34 335 355 359 3 2 359 360 358 356 358 360 0 3 8 358 241 224 219 217 215 214 214 213 211 210 212 213 212 213 214 215 216 219 222 224 225 226 227 228 230 231 232 233 234 235 235 235 235 235 234 233 233 233 235 237 238 238 239 241 242
65 102 77 40 357 175 221 287 21 65 76 74 62 33 359 36 63 105 131 317 2 31 20 105 116 165 312 18 12 3 360 1 5 6 7 8 10 10 11 19 29 30 224 222 221 217 215 215 214 212 211 211 212 213 213 213 214 216 219 221 223 224 226 228 229 231 232 233 234 235 236 237 238 238 237 236 236 236 235 236 237 238 239 239 239 241
31 74 56 14 315 303 286 307 5 31 65 58 33 21 16 6 5 161 169 160 59 26 358 58 101 184 252 23 24 6 358 2 6 7 10 12 15 19 19 23 32 41 54 158 211 216 216 215 214 213 213 212 212 213 214 214 214 216 218 220 222 224 227 228 229 231 232 233 235 236 237 238 239 240 240 239 238 237 238 238 238 238 239 240 240 240
4 59 76 59 11 350 342 341 346 355 32 48 3 360 6 1 5 23 72 60 60 51 131 116 123 210 260 22 25 9 2 5 4 1 6 13 14 19 24 27 33 40 47 59 99 175 200 210 214 215 215 215 213 214 215 216 215 215 217 219 221 224 226 228 229 230 231 233 234 236 237 238 240 241 241 242 241 239 239 239 240 240 240 240 241 241
72 70 99 106 121 170 237 263 271 310 352 29 7 356 0 8 14 27 58 46 52 273 104 139 163 271 307 18 24 12 5 4 360 355 1 11 14 20 27 30 35 40 41 45 58 83 136 179 200 210 215 217 216 215 216 217 217 217 218 219 222 224 226 226 228 230 231 233 234 236 238 239 240 241 243 244 245 244 242 241 241 242 242 242 242 242
109 58 66 106 123 162 180 210 252 317 352 341 356 4 0 357 7 56 81 53 161 3 330 215 173 341 349 14 20 11 6 4 357 352 356 5 11 20 28 31 35 40 41 40 45 54 71 106 160 191 206 215 218 217 218 219 219 218 219 220 222 224 225 226 227 228 230 232 234 236 238 239 241 243 244 246 247 247 246 245 244 244 244 244 244 244
110 46 35 75 76 148 180 232 312 357 1 311 338 355 346 339 358 56 113 212 156 76 304 245 167 23 359 12 18 7 2 4 358 354 354 357 1 13 27 32 35 38 40 41 42 44 49 58 80 140 181 201 211 215 218 221 222 221 220 221 222 223 224 226 227 228 230 232 234 236 239 241 242 244 245 247 248 248 248 247 246 245 245 245 245 245
112 64 35 81 47 336 315 334 349 17 322 295 315 313 312 328 339 323 236 223 158 132 241 250 289 29 16 12 16 13 6 3 358 357 359 1 2 14 28 32 33 32 34 38 40 39 41 45 53 72 119 173 194 204 211 218 223 224 224 223 223 224 225 226 226 228 230 231 234 237 239 241 243 244 246 247 248 248 249 248 247 246 245 245 246 247
96 74 33 95 84 357 353 349 5 24 351 311 292 282 280 291 289 265 253 235 194 202 238 265 300 27 56 6 8 33 20 11 12 15 17 15 10 14 23 28 29 28 28 31 34 37 38 40 45 53 69 109 162 190 201 208 214 220 224 226 225 225 226 226 227 228 230 232 235 238 240 241 243 244 246 247 248 249 249 250 249 248 247 246 246 247
57 65 353 69 74 350 345 1 356 352 315 280 279 280 278 290 297 278 264 252 227 244 261 272 276 258 24 349 4 41 32 27 27 22 21 18 14 13 16 21 25 25 24 25 27 31 35 37 40 44 51 64 85 148 192 204 208 212 219 225 228 228 227 227 228 229 231 233 237 238 239 241 243 244 246 247 249 250 251 251 251 250 250 249 248 248
63 67 351 59 60 306 300 353 321 302 297 279 277 281 277 279 285 272 285 348 337 279 277 249 237 241 320 340 357 24 32 37 33 24 20 18 17 17 14 16 19 20 20 22 22 25 30 34 37 36 37 41 48 58 133 201 207 209 212 217 225 229 229 228 228 230 232 234 236 238 239 241 243 244 247 248 250 251 252 252 252 252 252 252 251 251
96 100 65 76 69 282 286 311 298 327 6 321 259 274 277 274 282 284 331 26 6 303 179 176 208 251 301 334 357 6 21 37 35 28 25 18 15 15 15 15 17 16 16 17 17 19 22 27 32 32 31 32 33 32 27 339 210 210 209 211 217 223 227 229 229 230 233 234 235 237 238 239 241 244 246 249 250 252 252 252 252 252 253 253 253 253
93 101 126 121 108 264 289 319 342 14 4 262 249 265 262 270 288 293 53 36 355 9 125 147 171 327 324 346 12 357 352 36 46 36 30 21 13 10 10 13 14 12 11 11 12 14 14 16 22 25 26 27 28 26 20 6 269 219 211 210 212 215 221 228 231 231 232 233 234 236 236 235 237 242 246 248 250 251 251 252 252 253 254 254 254 254
104 93 133 138 114 237 302 9 25 323 248 254 288 299 280 291 16 101 100 63 8 17 69 67 7 350 350 356 360 347 330 288 63 32 24 19 13 6 3 6 8 8 6 6 5 6 7 8 8 10 15 20 23 23 19 8 344 280 232 216 211 210 212 220 228 232 233 234 235 236 235 235 235 236 240 243 246 247 249 251 253 254 254 254 255 255
133 124 140 135 124 168 6 63 149 255 270 287 314 323 339 14 31 63 96 71 19 13 10 359 338 334 348 353 352 350 337 261 216 7 11 12 10 5 1 359 360 0 1 2 1 359 359 1 0 358 1 6 13 18 16 10 0 339 305 253 222 213 209 211 218 227 231 234 236 237 237 237 237 235 235 238 240 243 246 249 251 253 254 255 255 256
131 134 128 130 171 137 97 202 233 323 321 317 330 348 27 34 1 35 109 282 29 22 359 353 341 333 339 345 351 356 356 222 211 330 358 6 4 0 358 357 355 354 353 356 357 354 354 356 356 355 352 352 356 5 9 6 3 356 348 335 257 221 215 215 219 226 230 232 233 233 236 239 239 238 238 238 238 240 244 248 250 252 253 254 254 255
104 132 151 149 178 121 107 284 323 5 307 270 246 255 343 350 282 257 187 256 38 19 1 360 354 342 343 345 350 358 13 119 174 334 349 356 355 352 353 353 353 351 349 351 351 349 350 351 353 355 351 344 343 349 355 357 360 360 1 2 312 219 220 223 227 235 240 241 238 234 235 238 239 239 240 239 238 241 245 247 250 253 254 254 256 257
57 46 111 119 113 111 127 186 217 188 236 242 225 251 326 334 278 261 27 291 2 8 2 6 4 359 359 353 352 360 16 76 314 328 340 344 343 344 344 343 345 346 346 348 347 345 345 345 347 351 348 340 339 341 338 341 351 357 1 10 10 235 234 234 233 234 240 248 249 243 241 241 239 238 238 238 239 243 247 250 252 254 255 256 257 258
37 27 69 113 170 181 168 202 220 219 248 242 222 269 320 335 142 82 4 260 328 6 10 15 8 4 3 357 358 7 20 1 311 321 334 337 333 335 337 337 338 336 336 341 343 341 341 340 341 345 346 344 341 336 329 329 340 353 356 3 9 334 277 269 267 256 247 249 250 246 245 244 242 238 236 237 241 245 249 252 254 255 255 256 257 258
19 16 92 133 184 208 203 224 258 254 242 221 226 297 341 32 121 164 229 262 354 7 14 13 3 358 353 350 353 342 320 317 313 316 327 331 326 327 331 332 332 330 328 331 335 337 337 335 338 341 343 344 338 328 326 328 334 344 349 349 352 351 328 299 293 290 279 267 254 244 240 239 238 238 236 237 241 245 247 250 252 253 254 256 257 257
67 63 129 138 153 196 196 204 273 281 235 195 205 324 45 121 183 217 280 357 356 352 357 349 341 341 337 333 330 318 312 313 311 311 316 318 318 320 321 325 327 328 327 324 325 331 332 331 333 335 336 340 335 325 323 325 326 330 335 337 339 338 336 324 303 294 296 289 271 258 253 241 231 231 234 236 239 242 245 248 251 253 254 256 257 257
168 149 203 200 167 138 142 196 253 275 203 167 133 95 153 176 232 314 346 355 317 316 330 324 319 326 326 321 317 313 310 308 307 308 308 307 309 310 312 316 319 321 324 323 320 321 323 324 327 330 331 335 334 326 320 318 320 322 322 324 327 326 327 331 318 298 302 299 286 276 275 266 240 227 229 231 234 239 244 248 251 253 255 255 255 256
188 166 175 220 194 143 155 206 232 225 184 173 168 179 214 248 285 307 312 297 290 310 315 311 310 314 315 313 311 308 305 303 303 305 305 303 303 304 305 306 308 311 315 317 317 316 315 314 317 323 327 329 330 327 321 318 319 317 312 312 317 319 320 324 323 313 300 294 291 283 274 267 264 259 246 235 233 237 242 245 247 251 255 256 255 253
217 192 163 189 207 175 196 224 220 172 173 188 216 257 272 273 276 284 284 280 290 303 304 306 308 308 308 309 306 302 299 299 299 300 301 300 300 299 300 300 300 303 305 307 310 311 310 307 307 311 317 323 326 324 320 320 321 316 305 305 308 311 316 320 323 327 315 297 295 293 281 268 264 268 267 261 253 247 245 244 243 244 249 253 253 251
219 180 141 150 243 269 263 249 234 230 237 242 255 269 271 264 265 276 276 273 286 298 301 305 309 309 310 310 304 299 297 295 294 294 294 295 295 295 296 296 295 296 298 299 301 303 304 302 300 300 304 311 319 323 320 318 319 316 311 308 306 306 312 317 320 322 321 312 306 302 294 283 273 270 269 266 264 261 258 255 251 248 248 250 250 249
223 181 168 167 214 259 273 247 224 233 248 254 263 263 252 251 267 274 266 269 287 300 304 311 316 315 314 311 306 302 298 294 291 289 288 290 291 291 291 292 292 293 293 293 294 295 298 299 297 295 297 300 309 318 320 317 314 312 313 314 311 310 312 315 316 316 315 313 311 307 301 293 285 281 278 273 270 267 264 261 257 253 248 245 245 246
179 176 183 188 183 195 259 263 247 249 258 264 267 263 259 265 270 261 256 274 292 301 306 313 319 318 316 314 310 304 298 294 289 287 286 287 288 288 287 286 287 289 289 288 287 287 289 292 292 291 292 293 300 310 315 315 314 311 310 312 313 313 313 312 312 313 312 310 307 305 304 299 289 278 273 270 265 259 256 255 253 252 249 245 243 244
140 162 183 177 195 252 288 274 263 268 276 271 267 268 269 268 258 247 257 279 291 299 307 312 318 320 317 315 313 307 299 294 290 286 285 284 283 285 285 283 283 284 284 283 282 281 282 285 286 286 286 287 293 303 307 308 309 309 309 310 311 312 312 312 311 310 309 309 306 301 301 302 296 280 265 257 253 248 246 247 248 252 254 251 247 247
144 171 168 143 199 258 252 244 234 234 267 265 264 272 270 256 247 252 268 280 288 299 309 313 317 318 317 315 313 308 301 296 293 289 285 283 281 282 284 284 282 280 278 278 278 276 275 277 280 281 280 281 286 295 300 302 304 304 306 309 311 311 310 310 310 309 307 307 307 303 301 304 303 292 274 259 253 251 248 246 246 250 255 256 253 250
195 208 185 176 210 233 243 245 232 216 241 262 277 283 270 255 256 263 272 281 290 301 310 314 316 318 318 315 312 305 298 295 293 289 285 283 282 281 282 283 282 279 276 274 273 272 271 271 272 275 275 276 280 286 293 297 299 299 302 306 310 311 310 309 309 308 308 308 309 308 307 306 306 300 286 269 257 254 254 253 252 251 254 259 260 256
Height
1497 1502 1504 1503 1504 1505 1506 1507 1507 1506 1507 1509 1511 1514 1516 1517 1514 1508 1505 1502 1501 1509 1512 1509 1510 1509 1509 1509 1508 1510 1512 1513 1515 1516 1517 1519 1520 1522 1524 1526 1527 1528 1530 1533 1535 1537 1539 1542 1544 1546 1549 1551 1553 1555 1556 1558 1560 1562 1564 1566 1568 1570 1572 1574 1576 1577 1578 1579 1581 1582 1584 1585 1586 1588 1589 1590 1591 1593 1594 1595 1596 1597 1598 1599 1600 1601
1497 1502 1502 1500 1501 1502 1503 1504 1504 1505 1506 1508 1510 1514 1516 1517 1513 1506 1504 1502 1500 1509 1511 1507 1510 1510 1507 1507 1506 1508 1511 1511 1512 1513 1514 1516 1518 1521 1522 1524 1526 1528 1531 1533 1535 1536 1538 1541 1543 1545 1547 1549 1551 1553 1555 1556 1559 1561 1563 1565 1567 1569 1571 1573 1575 1576 1577 1579 1580 1582 1583 1585 1587 1588 1589 1590 1592 1593 1594 1595 1596 1597 1598 1599 1600 1601
1501 1501 1499 1498 1499 1500 1502 1503 1504 1506 1506 1508 1510 1513 1516 1514 1510 1506 1503 1502 1502 1508 1510 1508 1511 1510 1504 1504 1504 1505 1507 1507 1508 1509 1512 1514 1517 1519 1520 1522 1525 1527 1530 1531 1533 1535 1537 1539 1541 1544 1546 1548 1550 1552 1554 1556 1558 1560 1562 1564 1566 1569 1570 1572 1574 1576 1577 1579 1580 1582 1584 1586 1587 1588 1589 1591 1592 1593 1594 1595 1596 1597 1598 1599 1600 1601
1504 1500 1496 1496 1498 1500 1503 1503 1504 1505 1506 1508 1510 1513 1515 1512 1511 1510 1506 1504 1503 1506 1508 1507 1509 1508 1504 1504 1503 1502 1503 1504 1507 1509 1512 1514 1514 1516 1518 1521 1523 1525 1527 1529 1531 1533 1535 1538 1540 1542 1544 1546 1549 1551 1553 1554 1556 1558 1561 1563 1565 1567 1570 1572 1574 1575 1577 1579 1581 1583 1584 1586 1587 1588 1589 1590 1591 1592 1593 1594 1595 1596 1598 1599 1600 1601
1499 1495 1492 1495 1497 1499 1502 1503 1504 1506 1508 1508 1508 1511 1512 1509 1510 1510 1507 1505 1505 1505 1504 1506 1512 1510 1505 1506 1503 1501 1502 1503 1506 1508 1511 1512 1513 1515 1518 1521 1523 1523 1525 1527 1529 1531 1534 1536 1538 1540 1543 1545 1547 1549 1551 1553 1555 1557 1559 1561 1564 1566 1568 1571 1573 1575 1577 1579 1580 1582 1584 1585 1587 1588 1588 1589 1590 1591 1592 1594 1595 1596 1597 1598 1599 1600
1495 1492 1491 1495 1498 1499 1502 1503 1503 1506 1510 1509 1506 1505 1506 1506 1507 1507 1507 1508 1511 1512 1504 1506 1520 1517 1507 1507 1505 1502 1504 1504 1504 1506 1507 1509 1511 1514 1516 1518 1521 1523 1524 1526 1528 1530 1532 1534 1537 1539 1541 1543 1545 1547 1549 1552 1554 1556 1558 1560 1563 1565 1567 1570 1572 1574 1576 1577 1579 1581 1582 1583 1584 1585 1586 1588 1589 1591 1592 1593 1595 1596 1597 1598 1599 1600
1492 1490 1490 1494 1497 1498 1501 1503 1501 1503 1510 1513 1505 1499 1502 1503 1505 1506 1508 1511 1516 1515 1505 1505 1518 1520 1512 1508 1505 1503 1504 1504 1503 1503 1504 1507 1509 1511 1513 1515 1518 1520 1522 1525 1527 1529 1531 1532 1534 1536 1538 1541 1543 1545 1548 1551 1553 1555 1557 1559 1561 1564 1566 1568 1571 1573 1575 1576 1577 1579 1580 1582 1583 1584 1585 1587 1589 1591 1592 1593 1595 1596 1597 1598 1599 1600
1489 1490 1491 1493 1495 1499 1502 1502 1500 1499 1508 1511 1501 1497 1501 1501 1503 1506 1508 1513 1513 1510 1508 1506 1511 1520 1517 1508 1503 1503 1506 1506 1504 1502 1502 1504 1506 1508 1510 1512 1514 1517 1519 1522 1524 1526 1528 1530 1532 1534 1536 1538 1541 1544 1547 1549 1552 1554 1556 1558 1560 1562 1564 1567 1569 1571 1573 1575 1576 1578 1579 1581 1582 1584 1586 1587 1589 1590 1592 1593 1594 1595 1596 1597 1598 1599
1487 1489 1491 1492 1496 1499 1499 1497 1495 1496 1504 1504 1496 1497 1499 1499 1502 1504 1506 1512 1511 1513 1517 1511 1510 1522 1521 1507 1502 1503 1507 1509 1504 1500 1499 1500 1503 1505 1506 1509 1511 1514 1516 1518 1521 1523 1525 1527 1529 1532 1534 1537 1540 1543 1545 1547 1550 1553 1555 1557 1559 1561 1563 1565 1567 1570 1572 1573 1575 1577 1578 1580 1581 1583 1586 1587 1589 1590 1591 1593 1594 1595 1596 1597 1598 1599
1486 1487 1488 1490 1495 1496 1492 1490 1491 1495 1499 1497 1495 1496 1497 1500 1502 1504 1508 1509 1511 1519 1520 1511 1510 1521 1521 1509 1508 1510 1508 1506 1499 1496 1497 1496 1498 1500 1502 1505 1507 1511 1514 1516 1518 1520 1522 1524 1527 1530 1532 1535 1538 1540 1543 1546 1549 1551 1553 1555 1557 1559 1561 1563 1566 1568 1570 1572 1574 1575 1577 1578 1580 1582 1584 1586 1588 1589 1590 1592 1593 1594 1595 1596 1597 1598
1486 1485 1486 1488 1491 1490 1487 1487 1488 1490 1492 1492 1495 1497 1499 1503 1502 1505 1509 1507 1516 1523 1514 1507 1507 1515 1519 1511 1508 1507 1499 1494 1493 1494 1494 1492 1494 1496 1498 1501 1503 1506 1510 1512 1515 1517 1520 1523 1525 1528 1530 1532 1535 1538 1541 1544 1546 1549 1551 1553 1555 1557 1559 1561 1564 1566 1568 1571 1572 1574 1575 1577 1579 1581 1583 1585 1586 1588 1589 1590 1592 1593 1594 1595 1597 1598
1487 1486 1488 1488 1488 1487 1486 1486 1487 1487 1489 1492 1496 1498 1503 1509 1507 1511 1513 1511 1525 1525 1508 1506 1507 1514 1521 1510 1502 1500 1490 1487 1491 1490 1489 1487 1488 1490 1493 1496 1498 1502 1505 1508 1511 1514 1518 1521 1523 1525 1527 1530 1533 1535 1538 1541 1544 1546 1549 1551 1553 1555 1558 1560 1562 1564 1566 1569 1571 1573 1574 1576 1578 1580 1581 1583 1585 1586 1588 1589 1591 1592 1593 1594 1596 1597
1490 1488 1489 1488 1486 1487 1487 1487 1488 1489 1490 1494 1498 1502 1511 1519 1520 1523 1524 1523 1527 1519 1509 1510 1509 1514 1518 1505 1500 1501 1493 1491 1491 1488 1487 1485 1485 1486 1488 1491 1494 1498 1501 1504 1507 1510 1514 1517 1519 1521 1523 1526 1529 1532 1535 1538 1541 1544 1546 1549 1551 1553 1556 1558 1560 1562 1564 1567 1569 1571 1573 1575 1577 1578 1580 1582 1583 1585 1587 1588 1590 1591 1592 1593 1594 1596
1495 1492 1490 1489 1488 1488 1489 1490 1491 1493 1494 1497 1499 1502 1512 1523 1528 1533 1534 1533 1528 1516 1510 1511 1509 1514 1513 1502 1500 1499 1494 1493 1490 1487 1487 1485 1485 1486 1486 1489 1491 1494 1497 1500 1503 1506 1509 1512 1515 1517 1520 1523 1526 1528 1532 1534 1537 1541 1543 1546 1548 1551 1554 1556 1558 1560 1562 1564 1567 1569 1571 1573 1575 1577 1579 1580 1582 1584 1586 1587 1589 1590 1591 1592 1594 1595
1505 1502 1497 1495 1494 1492 1491 1493 1494 1495 1496 1496 1495 1496 1503 1510 1517 1525 1527 1525 1522 1517 1513 1511 1511 1511 1507 1500 1497 1495 1494 1493 1489 1487 1485 1482 1484 1485 1486 1490 1491 1492 1494 1497 1500 1502 1505 1508 1511 1514 1517 1519 1522 1525 1528 1531 1534 1537 1540 1543 1546 1549 1552 1554 1556 1558 1560 1562 1565 1567 1569 1572 1573 1575 1577 1579 1581 1583 1584 1586 1587 1589 1590 1592 1593 1594
1509 1508 1501 1497 1496 1494 1494 1493 1492 1493 1495 1495 1494 1495 1499 1500 1502 1510 1515 1512 1510 1514 1517 1513 1507 1501 1497 1495 1493 1490 1490 1489 1487 1486 1484 1482 1482 1481 1484 1487 1488 1491 1492 1494 1496 1498 1501 1505 1508 1510 1513 1515 1519 1522 1525 1528 1531 1534 1537 1540 1543 1546 1549 1552 1554 1556 1559 1561 1563 1565 1567 1570 1572 1574 1576 1577 1579 1581 1583 1585 1586 1588 1589 1591 1592 1594
1511 1509 1503 1498 1495 1493 1494 1493 1491 1493 1495 1495 1495 1497 1499 1498 1497 1504 1513 1513 1508 1513 1518 1514 1506 1502 1498 1494 1491 1490 1488 1486 1486 1486 1484 1484 1483 1482 1481 1481 1483 1486 1488 1490 1492 1494 1497 1501 1504 1507 1509 1512 1515 1518 1521 1524 1527 1530 1534 1538 1541 1544 1547 1550 1552 1554 1557 1559 1561 1564 1566 1568 1570 1571 1574 1575 1578 1579 1581 1583 1585 1586 1588 1589 1591 1593
1512 1511 1505 1503 1499 1493 1491 1491 1490 1491 1493 1495 1497 1498 1497 1497 1498 1500 1510 1518 1517 1516 1517 1516 1516 1516 1513 1506 1498 1495 1492 1489 1490 1489 1488 1486 1483 1484 1483 1481 1481 1482 1485 1488 1490 1493 1496 1497 1500 1503 1505 1508 1510 1513 1517 1520 1524 1528 1531 1535 1538 1541 1544 1547 1550 1553 1555 1557 1559 1562 1564 1566 1568 1569 1572 1574 1576 1578 1580 1581 1583 1584 1586 1588 1589 1591
1513 1512 1508 1504 1503 1499 1491 1491 1494 1494 1492 1494 1497 1498 1497 1501 1502 1500 1508 1518 1521 1522 1524 1523 1524 1525 1524 1520 1511 1506 1504 1499 1496 1493 1491 1488 1486 1485 1484 1482 1481 1481 1482 1485 1487 1490 1493 1494 1497 1499 1501 1505 1507 1511 1514 1518 1522 1525 1528 1532 1535 1538 1542 1545 1548 1550 1553 1555 1557 1560 1562 1564 1566 1568 1570 1572 1574 1576 1578 1579 1581 1582 1584 1586 1588 1589
1513 1514 1513 1505 1501 1501 1498 1500 1509 1508 1499 1495 1498 1501 1501 1503 1504 1504 1508 1511 1513 1522 1529 1529 1531 1529 1524 1522 1517 1515 1512 1506 1501 1498 1494 1492 1490 1487 1483 1480 1479 1479 1479 1480 1482 1484 1487 1490 1493 1496 1499 1503 1506 1509 1512 1515 1519 1522 1525 1529 1532 1536 1539 1542 1545 1547 1550 1552 1555 1557 1559 1562 1564 1566 1568 1570 1572 1574 1575 1577 1579 1581 1582 1584 1586 1587
1513 1516 1518 1511 1503 1506 1512 1516 1520 1518 1511 1508 1510 1515 1515 1512 1508 1507 1512 1514 1512 1517 1522 1527 1539 1538 1524 1518 1518 1516 1513 1508 1505 1502 1497 1495 1492 1487 1483 1477 1474 1474 1474 1476 1478 1480 1483 1487 1491 1494 1499 1502 1504 1508 1510 1513 1516 1519 1522 1525 1528 1532 1536 1539 1542 1545 1547 1550 1552 1555 1557 1559 1562 1564 1566 1568 1570 1571 1573 1575 1577 1579 1581 1582 1584 1586
1516 1518 1520 1518 1515 1518 1523 1522 1519 1518 1517 1517 1520 1525 1525 1521 1518 1513 1515 1521 1520 1519 1521 1527 1540 1540 1524 1517 1518 1515 1513 1509 1506 1504 1499 1496 1492 1488 1483 1476 1471 1471 1473 1475 1478 1481 1484 1487 1490 1494 1498 1500 1503 1505 1508 1510 1513 1516 1519 1522 1526 1529 1532 1535 1539 1542 1545 1548 1550 1552 1554 1557 1559 1562 1564 1566 1568 1569 1571 1573 1575 1577 1579 1580 1582 1584
1518 1519 1520 1523 1524 1524 1523 1520 1519 1518 1518 1518 1521 1525 1525 1524 1527 1524 1521 1524 1526 1526 1526 1526 1535 1536 1524 1518 1518 1515 1514 1511 1507 1505 1501 1497 1493 1489 1484 1478 1472 1471 1474 1477 1480 1483 1486 1489 1493 1496 1498 1500 1502 1504 1507 1509 1511 1513 1516 1519 1523 1526 1529 1532 1536 1539 1542 1545 1547 1550 1552 1555 1557 1559 1561 1563 1565 1567 1569 1571 1573 1575 1576 1578 1580 1582
1519 1523 1522 1523 1525 1523 1519 1519 1520 1519 1519 1522 1524 1526 1526 1525 1528 1528 1525 1526 1529 1532 1531 1527 1532 1532 1522 1518 1519 1516 1515 1512 1509 1506 1503 1500 1496 1491 1487 1482 1476 1474 1474 1477 1480 1483 1486 1489 1493 1496 1498 1500 1502 1504 1506 1507 1509 1511 1514 1517 1520 1523 1526 1530 1533 1537 1540 1542 1545 1547 1550 1552 1554 1556 1558 1560 1562 1564 1566 1568 1570 1572 1574 1576 1578 1579
1521 1527 1526 1525 1530 1529 1524 1523 1522 1521 1524 1529 1530 1529 1528 1527 1526 1525 1525 1527 1529 1535 1536 1530 1530 1528 1520 1519 1520 1517 1514 1513 1510 1508 1506 1503 1499 1495 1492 1487 1483 1479 1477 1478 1480 1483 1486 1489 1491 1494 1496 1499 1501 1504 1506 1508 1510 1511 1513 1515 1518 1521 1524 1527 1531 1534 1536 1539 1542 1544 1547 1549 1551 1553 1555 1557 1559 1561 1563 1565 1567 1569 1571 1573 1575 1577
1523 1531 1528 1526 1531 1535 1533 1533 1532 1530 1532 1533 1534 1533 1530 1529 1527 1526 1529 1530 1532 1536 1535 1530 1528 1526 1521 1521 1521 1519 1517 1515 1513 1511 1507 1505 1503 1500 1497 1493 1489 1485 1483 1483 1482 1483 1485 1486 1489 1492 1495 1497 1500 1502 1505 1507 1510 1511 1513 1515 1517 1519 1522 1525 1528 1531 1533 1536 1539 1541 1543 1545 1548 1549 1551 1554 1556 1558 1561 1563 1564 1566 1568 1570 1572 1574
1526 1533 1533 1530 1532 1536 1538 1538 1536 1536 1536 1536 1536 1535 1533 1532 1530 1528 1531 1533 1534 1535 1531 1527 1529 1528 1524 1524 1525 1524 1522 1519 1517 1514 1510 1508 1506 1503 1501 1498 1494 1490 1489 1488 1486 1485 1485 1486 1487 1490 1493 1496 1499 1501 1503 1504 1507 1509 1512 1513 1516 1518 1520 1523 1526 1528 1531 1533 1535 1538 1540 1542 1544 1546 1549 1551 1553 1555 1558 1559 1561 1563 1564 1566 1568 1570
1527 1534 1536 1535 1537 1538 1539 1538 1536 1536 1537 1536 1537 1537 1534 1534 1532 1531 1531 1530 1532 1535 1530 1525 1528 1530 1529 1529 1529 1527 1525 1523 1520 1517 1514 1512 1509 1507 1504 1500 1496 1494 1492 1491 1490 1489 1488 1488 1488 1489 1491 1494 1497 1500 1502 1503 1505 1507 1509 1511 1513 1516 1518 1520 1523 1525 1528 1530 1532 1534 1536 1539 1541 1543 1546 1548 1550 1552 1554 1555 1557 1559 1561 1562 1564 1566
1529 1536 1538 1537 1539 1539 1538 1538 1538 1537 1537 1537 1537 1536 1535 1534 1533 1533 1531 1528 1529 1532 1528 1523 1526 1531 1532 1532 1530 1528 1527 1525 1523 1521 1518 1515 1512 1508 1505 1501 1499 1497 1496 1495 1494 1493 1492 1492 1491 1491 1491 1493 1495 1498 1500 1502 1504 1506 1507 1509 1511 1513 1515 1517 1520 1522 1524 1526 1528 1530 1533 1536 1538 1540 1543 1545 1546 1548 1550 1551 1553 1555 1557 1558 1560 1562
1531 1536 1538 1537 1539 1540 1539 1539 1539 1538 1539 1538 1536 1535 1533 1533 1532 1532 1531 1528 1527 1528 1525 1523 1526 1530 1533 1532 1529 1528 1528 1526 1524 1521 1518 1515 1512 1509 1507 1505 1503 1501 1500 1498 1498 1497 1496 1495 1494 1493 1493 1493 1494 1496 1497 1500 1502 1503 1505 1507 1509 1511 1513 1515 1517 1518 1520 1522 1524 1527 1530 1532 1534 1537 1539 1540 1542 1544 1546 1548 1550 1551 1553 1554 1556 1558
1532 1537 1539 1537 1539 1541 1541 1540 1539 1539 1540 1539 1536 1534 1533 1532 1531 1530 1529 1528 1527 1527 1526 1525 1526 1528 1531 1530 1528 1528 1528 1525 1523 1520 1518 1516 1514 1512 1510 1508 1505 1504 1503 1501 1500 1499 1498 1497 1496 1495 1494 1494 1494 1495 1496 1497 1499 1500 1503 1505 1506 1508 1510 1512 1513 1515 1516 1518 1520 1523 1526 1528 1530 1533 1535 1536 1538 1540 1542 1545 1546 1548 1549 1550 1552 1554
1533 1538 1540 1539 1540 1542 1542 1542 1540 1538 1538 1538 1536 1534 1533 1531 1529 1528 1528 1529 1530 1531 1530 1527 1526 1528 1530 1529 1528 1527 1526 1524 1523 1521 1520 1518 1516 1514 1513 1510 1508 1506 1505 1504 1502 1501 1500 1498 1497 1496 1496 1496 1496 1495 1495 1496 1497 1498 1500 1502 1504 1505 1506 1508 1509 1511 1512 1514 1517 1519 1522 1524 1526 1528 1530 1532 1534 1536 1538 1541 1543 1544 1546 1547 1548 1550
1535 1537 1540 1542 1543 1542 1542 1542 1539 1537 1537 1537 1536 1535 1533 1531 1529 1528 1528 1530 1531 1532 1531 1528 1528 1529 1530 1528 1528 1527 1526 1525 1524 1523 1521 1519 1517 1517 1515 1513 1510 1508 1507 1506 1505 1503 1502 1501 1500 1499 1498 1497 1497 1496 1496 1496 1496 1496 1497 1498 1500 1502 1503 1504 1505 1507 1508 1510 1512 1514 1516 1518 1520 1522 1525 1527 1529 1532 1534 1536 1538 1540 1542 1543 1545 1547
1537 1537 1540 1543 1544 1544 1543 1540 1538 1539 1540 1537 1534 1534 1533 1531 1530 1530 1531 1531 1531 1530 1530 1529 1529 1530 1529 1528 1528 1527 1526 1525 1525 1524 1522 1520 1518 1517 1516 1514 1512 1510 1509 1507 1506 1505 1504 1503 1502 1501 1500 1499 1498 1497 1497 1496 1496 1495 1495 1495 1496 1498 1500 1501 1501 1502 1504 1506 1507 1508 1509 1510 1512 1515 1518 1521 1524 1527 1529 1531 1533 1535 1538 1539 1541 1543
1537 1538 1541 1543 1544 1545 1544 1540 1539 1541 1539 1535 1534 1533 1531 1530 1530 1530 1532 1534 1532 1530 1530 1530 1530 1529 1528 1528 1527 1526 1525 1524 1524 1523 1522 1521 1520 1518 1516 1514 1513 1512 1510 1508 1506 1506 1505 1504 1503 1502 1501 1500 1499 1498 1497 1496 1496 1495 1494 1494 1494 1495 1496 1498 1500 1501 1501 1502 1503 1504 1505 1507 1507 1509 1511 1514 1518 1521 1524 1526 1528 1531 1533 1535 1537 1538
1536 1538 1541 1543 1544 1546 1546 1544 1542 1540 1536 1533 1533 1532 1530 1530 1531 1531 1533 1535 1533 1532 1531 1531 1530 1528 1527 1527 1526 1525 1523 1522 1522 1522 1521 1521 1520 1518 1517 1515 1514 1513 1511 1509 1507 1506 1505 1505 1504 1503 1502 1501 1500 1499 1497 1496 1496 1495 1495 1493 1492 1493 1494 1496 1498 1500 1501 1501 1501 1501 1503 1505 1506 1507 1508 1510 1512 1515 1518 1521 1523 1526 1528 1531 1532 1534
1536 1537 1539 1543 1544 1545 1547 1546 1543 1540 1538 1534 1533 1534 1534 1534 1534 1535 1535 1536 1535 1533 1532 1531 1530 1528 1527 1526 1526 1524 1521 1520 1521 1522 1521 1520 1519 1518 1518 1516 1514 1513 1511 1510 1509 1508 1507 1505 1504 1503 1502 1501 1500 1499 1498 1497 1496 1495 1494 1493 1493 1494 1496 1497 1498 1500 1501 1501 1500 1500 1501 1502 1504 1505 1506 1508 1509 1510 1513 1516 1519 1521 1524 1526 1528 1530
1535 1536 1537 1541 1543 1544 1547 1548 1547 1547 1543 1537 1535 1535 1535 1535 1535 1535 1536 1536 1535 1534 1533 1532 1531 1529 1527 1526 1525 1524 1521 1521 1523 1522 1520 1520 1519 1517 1517 1515 1514 1513 1511 1509 1508 1507 1506 1505 1503 1502 1501 1500 1499 1498 1497 1498 1497 1496 1494 1493 1494 1495 1497 1498 1498 1499 1501 1502 1501 1501 1501 1501 1501 1502 1503 1505 1506 1507 1509 1512 1515 1517 1520 1522 1523 1525
1537 1538 1538 1540 1543 1545 1547 1549 1550 1548 1541 1535 1534 1535 1534 1535 1533 1534 1537 1537 1534 1534 1534 1532 1531 1530 1529 1527 1526 1524 1522 1524 1525 1524 1521 1519 1518 1517 1516 1514 1512 1512 1511 1509 1508 1506 1505 1504 1502 1502 1501 1499 1498 1497 1496 1497 1497 1497 1495 1493 1494 1495 1497 1497 1496 1495 1497 1500 1501 1501 1501 1500 1500 1499 1500 1501 1503 1505 1507 1509 1512 1514 1516 1518 1519 1521
1538 1540 1540 1542 1543 1544 1545 1547 1547 1543 1536 1533 1534 1534 1534 1533 1532 1537 1541 1537 1533 1534 1533 1532 1532 1531 1529 1529 1527 1525 1526 1527 1527 1525 1522 1521 1519 1517 1516 1514 1512 1510 1509 1508 1507 1505 1504 1504 1502 1500 1499 1498 1497 1496 1495 1494 1495 1496 1495 1494 1494 1495 1496 1496 1496 1494 1495 1498 1500 1500 1499 1499 1499 1498 1498 1499 1501 1503 1505 1507 1509 1511 1513 1514 1516 1517
1544 1544 1545 1544 1543 1543 1544 1546 1545 1539 1533 1532 1533 1532 1532 1533 1535 1539 1539 1534 1532 1534 1533 1532 1532 1531 1530 1529 1528 1527 1527 1527 1526 1524 1523 1522 1520 1518 1516 1514 1512 1510 1509 1507 1506 1505 1503 1503 1502 1500 1499 1498 1497 1496 1495 1493 1492 1494 1495 1494 1494 1494 1495 1495 1495 1495 1495 1497 1499 1499 1497 1496 1497 1496 1496 1496 1498 1500 1503 1505 1507 1509 1510 1511 1512 1514
1546 1548 1548 1546 1546 1546 1546 1547 1546 1539 1531 1529 1531 1531 1531 1533 1535 1534 1532 1531 1532 1533 1532 1531 1531 1530 1529 1529 1528 1527 1526 1524 1524 1523 1521 1521 1520 1518 1516 1514 1512 1510 1508 1507 1506 1504 1502 1501 1501 1500 1499 1498 1497 1496 1494 1492 1491 1491 1493 1494 1494 1493 1493 1494 1494 1493 1494 1496 1498 1497 1496 1495 1494 1494 1494 1494 1495 1496 1498 1500 1504 1506 1507 1509 1509 1510
1540 1543 1546 1547 1547 1547 1549 1551 1548 1540 1530 1527 1530 1531 1531 1532 1531 1529 1529 1531 1531 1530 1531 1531 1530 1529 1529 1527 1526 1525 1523 1521 1521 1520 1519 1519 1518 1517 1516 1515 1512 1510 1508 1506 1505 1504 1502 1500 1499 1499 1498 1496 1496 1495 1494 1492 1491 1490 1490 1492 1493 1492 1491 1492 1492 1492 1494 1496 1496 1494 1493 1493 1492 1492 1492 1491 1492 1493 1493 1496 1499 1502 1504 1505 1506 1506
1537 1537 1540 1542 1542 1543 1546 1546 1539 1530 1526 1526 1527 1528 1529 1529 1528 1527 1528 1529 1529 1529 1530 1529 1528 1528 1528 1526 1524 1523 1520 1518 1518 1517 1517 1516 1515 1515 1514 1513 1512 1511 1508 1506 1504 1503 1502 1499 1497 1496 1496 1496 1496 1495 1493 1492 1490 1488 1488 1489 1491 1491 1490 1490 1491 1491 1493 1496 1495 1492 1491 1491 1491 1490 1490 1489 1489 1490 1491 1492 1493 1496 1499 1501 1502 1502
1532 1531 1532 1534 1534 1534 1535 1533 1528 1524 1525 1526 1525 1525 1526 1526 1526 1526 1526 1526 1527 1528 1528 1527 1526 1526 1525 1524 1523 1521 1519 1517 1515 1514 1513 1513 1512 1512 1511 1511 1510 1509 1508 1506 1504 1502 1501 1498 1496 1494 1494 1495 1495 1495 1493 1491 1488 1487 1488 1489 1489 1489 1488 1488 1488 1488 1489 1491 1491 1490 1489 1489 1489 1488 1487 1486 1487 1488 1488 1490 1490 1491 1494 1497 1498 1498
1529 1529 1530 1530 1531 1530 1526 1523 1524 1524 1523 1523 1523 1523 1524 1524 1524 1525 1524 1524 1525 1526 1525 1525 1525 1523 1523 1522 1521 1519 1518 1516 1513 1511 1510 1510 1509 1508 1508 1507 1507 1507 1506 1505 1503 1501 1499 1497 1495 1493 1492 1493 1493 1493 1491 1489 1488 1487 1487 1488 1488 1488 1487 1486 1485 1485 1485 1485 1485 1485 1485 1485 1485 1484 1483 1482 1482 1482 1484 1486 1487 1488 1491 1493 1495 1495
1527 1528 1529 1530 1531 1530 1525 1520 1521 1521 1520 1520 1521 1521 1521 1522 1522 1522 1522 1523 1523 1523 1523 1523 1523 1522 1521 1520 1518 1516 1515 1514 1512 1509 1507 1506 1506 1505 1504 1503 1503 1503 1503 1503 1501 1500 1498 1495 1494 1492 1490 1490 1490 1490 1489 1487 1486 1485 1485 1485 1485 1485 1484 1483 1483 1482 1482 1481 1480 1480 1480 1479 1479 1478 1477 1476 1476 1476 1479 1482 1484 1487 1490 1491 1492 1491
1525 1526 1528 1529 1529 1528 1523 1519 1519 1519 1519 1519 1519 1519 1519 1519 1520 1520 1521 1521 1521 1521 1521 1521 1520 1520 1519 1517 1516 1514 1512 1511 1511 1508 1505 1503 1503 1502 1502 1500 1499 1499 1500 1499 1499 1498 1497 1495 1492 1490 1489 1488 1487 1487 1486 1484 1484 1484 1482 1482 1482 1481 1480 1480 1479 1479 1478 1477 1476 1476 1476 1476 1474 1474 1474 1473 1474 1475 1478 1481 1484 1486 1486 1486 1486 1485
1523 1524 1525 1525 1526 1525 1521 1518 1517 1518 1517 1516 1516 1516 1516 1516 1517 1518 1518 1519 1519 1518 1518 1518 1518 1517 1516 1515 1514 1512 1509 1508 1507 1506 1503 1500 1499 1499 1499 1498 1496 1495 1495 1496 1496 1495 1495 1493 1491 1489 1487 1486 1485 1485 1483 1482 1482 1482 1481 1479 1479 1478 1477 1476 1476 1475 1474 1473 1472 1473 1473 1473 1472 1471 1471 1472 1473 1475 1477 1479 1481 1481 1481 1480 1480 1479
1521 1521 1522 1524 1525 1523 1518 1513 1514 1516 1515 1513 1513 1514 1514 1514 1515 1516 1516 1516 1516 1516 1516 1515 1515 1514 1513 1512 1511 1509 1507 1505 1503 1502 1500 1497 1495 1495 1495 1495 1494 1492 1491 1492 1492 1492 1491 1491 1490 1488 1486 1484 1484 1483 1482 1481 1480 1480 1479 1478 1477 1476 1474 1473 1473 1472 1471 1469 1469 1469 1469 1469 1468 1468 1468 1469 1470 1471 1473 1474 1475 1475 1474 1473 1473 1472
1514 1513 1515 1517 1516 1513 1509 1508 1510 1512 1511 1510 1511 1512 1513 1513 1513 1513 1514 1514 1514 1513 1513 1512 1511 1511 1510 1509 1508 1506 1504 1501 1500 1499 1496 1493 1491 1492 1492 1491 1491 1489 1488 1488 1488 1487 1487 1487 1487 1486 1484 1483 1482 1481 1480 1479 1478 1477 1476 1476 1474 1473 1472 1471 1469 1468 1467 1466 1465 1464 1464 1464 1464 1464 1464 1465 1466 1466 1467 1467 1468 1468 1467 1466 1466 1466